Time,TemperatureF,DewpointF,PressureIn,WindDirection,WindDirectionDegrees,WindSpeedMPH,WindSpeedGustMPH,Humidity,HourlyPrecipIn,Conditions,Clouds,dailyrainin,SoftwareType,DateUTC
2013-01-23 00:02:00,15.0,6.0,-100.00,West,265,0.0,0.0,68,-99.99,,,-99.99,,2013-01-23 06:02:00,
2013-01-23 00:12:00,15.0,6.0,-100.00,West,280,0.0,0.0,68,-99.99,,,-99.99,,2013-01-23 06:12:00,
2013-01-23 00:22:00,15.0,7.0,-100.00,WNW,300,0.0,0.0,69,-99.99,,,-99.99,,2013-01-23 06:22:00,
2013-01-23 00:32:00,15.0,7.0,-100.00,WNW,300,0.0,0.0,69,-99.99,,,-99.99,,2013-01-23 06:32:00,
2013-01-23 00:42:00,15.0,7.0,-100.00,WNW,300,0.0,0.0,69,-99.99,,,-99.99,,2013-01-23 06:42:00,
2013-01-23 00:53:00,15.0,7.0,-100.00,NW,305,0.0,0.0,69,-99.99,,,-99.99,,2013-01-23 06:53:00,
2013-01-23 01:02:00,15.0,7.0,-100.00,NW,305,0.0,0.0,69,-99.99,,,-99.99,,2013-01-23 07:02:00,
2013-01-23 01:12:00,15.0,7.0,-100.00,WSW,255,0.0,0.0,69,-99.99,,,-99.99,,2013-01-23 07:12:00,
2013-01-23 01:22:00,15.0,7.0,-100.00,SW,225,0.0,0.0,69,-99.99,,,-99.99,,2013-01-23 07:22:00,
2013-01-23 01:33:00,16.0,7.0,-100.00,SW,230,0.0,0.0,69,-99.99,,,-99.99,,2013-01-23 07:33:00,
2013-01-23 01:42:00,16.0,7.0,-100.00,SW,230,0.0,0.0,69,-99.99,,,-99.99,,2013-01-23 07:42:00,
2013-01-23 01:53:00,16.0,7.0,-100.00,WSW,240,0.0,0.0,67,-99.99,,,-99.99,,2013-01-23 07:53:00,
2013-01-23 02:02:00,16.0,7.0,-100.00,WSW,240,0.0,0.0,67,-99.99,,,-99.99,,2013-01-23 08:02:00,
2013-01-23 02:13:00,16.0,7.0,-100.00,SW,235,0.0,0.0,67,-99.99,,,-99.99,,2013-01-23 08:13:00,
2013-01-23 02:22:00,16.0,7.0,-100.00,West,260,0.0,0.0,67,-99.99,,,-99.99,,2013-01-23 08:22:00,
2013-01-23 02:33:00,16.0,7.0,-100.00,West,260,0.0,0.0,67,-99.99,,,-99.99,,2013-01-23 08:33:00,
2013-01-23 02:42:00,16.0,7.0,-100.00,SSW,195,0.0,0.0,67,-99.99,,,-99.99,,2013-01-23 08:42:00,
2013-01-23 02:53:00,16.0,7.0,-100.00,SSW,200,0.0,0.0,67,-99.99,,,-99.99,,2013-01-23 08:53:00,
2013-01-23 03:00:00,17.0,7.0,-100.00,SW,220,0.0,0.0,67,-99.99,,,-99.99,,2013-01-23 09:00:00,
2013-01-23 03:03:00,16.0,7.0,-100.00,SSW,200,0.0,0.0,67,-99.99,,,-99.99,,2013-01-23 09:03:00,
2013-01-23 03:12:00,17.0,7.0,-100.00,SSW,210,0.0,0.0,67,-99.99,,,-99.99,,2013-01-23 09:12:00,
2013-01-23 03:22:00,17.0,7.0,-100.00,SSW,205,0.0,0.0,67,-99.99,,,-99.99,,2013-01-23 09:22:00,
2013-01-23 03:32:00,17.0,7.0,-100.00,SSW,205,0.0,0.0,67,-99.99,,,-99.99,,2013-01-23 09:32:00,
2013-01-23 03:43:00,17.0,7.0,-100.00,SW,220,0.0,0.0,67,-99.99,,,-99.99,,2013-01-23 09:43:00,
2013-01-23 03:53:00,17.0,7.0,-100.00,SW,220,0.0,0.0,67,-99.99,,,-99.99,,2013-01-23 09:53:00,
2013-01-23 04:12:00,17.0,8.0,-100.00,SSW,200,0.0,0.0,68,-99.99,,,-99.99,,2013-01-23 10:12:00,
2013-01-23 04:23:00,17.0,8.0,-100.00,South,185,0.0,0.0,68,-99.99,,,-99.99,,2013-01-23 10:23:00,
2013-01-23 04:33:00,17.0,8.0,-100.00,South,185,0.0,0.0,68,-99.99,,,-99.99,,2013-01-23 10:33:00,
2013-01-23 04:43:00,17.0,9.0,-100.00,South,190,0.0,0.0,69,-99.99,,,-99.99,,2013-01-23 10:43:00,
2013-01-23 04:53:00,16.0,8.0,-100.00,SSW,205,0.0,0.0,69,-99.99,,,-99.99,,2013-01-23 10:53:00,
2013-01-23 05:02:00,16.0,8.0,-100.00,SSW,205,0.0,0.0,69,-99.99,,,-99.99,,2013-01-23 11:02:00,
2013-01-23 05:12:00,15.0,7.0,-100.00,SSW,200,0.0,0.0,70,-99.99,,,-99.99,,2013-01-23 11:12:00,
2013-01-23 05:23:00,15.0,8.0,-100.00,South,180,0.0,0.0,71,-99.99,,,-99.99,,2013-01-23 11:23:00,
2013-01-23 05:33:00,15.0,8.0,-100.00,South,180,0.0,0.0,71,-99.99,,,-99.99,,2013-01-23 11:33:00,
2013-01-23 05:43:00,15.0,7.0,-100.00,SSW,200,0.0,0.0,73,-99.99,,,-99.99,,2013-01-23 11:43:00,
2013-01-23 05:53:00,14.0,8.0,-100.00,South,185,0.0,0.0,75,-99.99,,,-99.99,,2013-01-23 11:53:00,
2013-01-23 06:03:00,14.0,8.0,-100.00,South,185,0.0,0.0,75,-99.99,,,-99.99,,2013-01-23 12:03:00,
2013-01-23 06:12:00,14.0,8.0,-100.00,South,170,0.0,0.0,76,-99.99,,,-99.99,,2013-01-23 12:12:00,
2013-01-23 06:22:00,14.0,8.0,-100.00,South,185,0.0,0.0,77,-99.99,,,-99.99,,2013-01-23 12:22:00,
2013-01-23 06:33:00,14.0,8.0,-100.00,South,185,0.0,0.0,77,-99.99,,,-99.99,,2013-01-23 12:33:00,
2013-01-23 06:43:00,13.0,7.0,-100.00,South,180,0.0,0.0,77,-99.99,,,-99.99,,2013-01-23 12:43:00,
2013-01-23 06:53:00,13.0,8.0,-100.00,SSE,150,0.0,0.0,78,-99.99,,,-99.99,,2013-01-23 12:53:00,
2013-01-23 07:03:00,13.0,8.0,-100.00,SSE,150,0.0,0.0,78,-99.99,,,-99.99,,2013-01-23 13:03:00,
2013-01-23 07:13:00,13.0,8.0,-100.00,South,180,0.0,0.0,78,-99.99,,,-99.99,,2013-01-23 13:13:00,
2013-01-23 07:23:00,13.0,7.0,-100.00,SE,135,0.0,0.0,79,-99.99,,,-99.99,,2013-01-23 13:23:00,
2013-01-23 07:33:00,12.0,7.0,-100.00,SE,130,0.0,0.0,80,-99.99,,,-99.99,,2013-01-23 13:33:00,
2013-01-23 07:42:00,12.0,7.0,-100.00,SE,130,0.0,0.0,80,-99.99,,,-99.99,,2013-01-23 13:42:00,
2013-01-23 07:53:00,12.0,8.0,-100.00,SE,125,0.0,0.0,81,-99.99,,,-99.99,,2013-01-23 13:53:00,
2013-01-23 08:03:00,12.0,8.0,-100.00,SE,125,0.0,0.0,81,-99.99,,,-99.99,,2013-01-23 14:03:00,
2013-01-23 08:12:00,12.0,8.0,-100.00,SE,140,0.0,0.0,82,-99.99,,,-99.99,,2013-01-23 14:12:00,
2013-01-23 08:23:00,12.0,8.0,-100.00,SE,130,0.0,0.0,82,-99.99,,,-99.99,,2013-01-23 14:23:00,
2013-01-23 08:33:00,12.0,8.0,-100.00,SE,130,0.0,0.0,82,-99.99,,,-99.99,,2013-01-23 14:33:00,
2013-01-23 08:43:00,13.0,9.0,-100.00,SE,140,0.0,0.0,82,-99.99,,,-99.99,,2013-01-23 14:43:00,
2013-01-23 08:53:00,15.0,10.0,-100.00,South,170,0.0,0.0,82,-99.99,,,-99.99,,2013-01-23 14:53:00,
2013-01-23 09:03:00,15.0,10.0,-100.00,South,170,0.0,0.0,82,-99.99,,,-99.99,,2013-01-23 15:03:00,
2013-01-23 09:12:00,17.0,12.0,-100.00,SE,145,0.0,0.0,82,-99.99,,,-99.99,,2013-01-23 15:12:00,
2013-01-23 09:23:00,18.0,13.0,-100.00,SSE,155,0.0,0.0,80,-99.99,,,-99.99,,2013-01-23 15:23:00,
2013-01-23 09:33:00,18.0,13.0,-100.00,SSE,155,0.0,0.0,80,-99.99,,,-99.99,,2013-01-23 15:33:00,
2013-01-23 09:43:00,19.0,13.0,-100.00,South,185,0.0,0.0,78,-99.99,,,-99.99,,2013-01-23 15:43:00,
2013-01-23 09:53:00,20.0,14.0,-100.00,South,180,0.0,0.0,76,-99.99,,,-99.99,,2013-01-23 15:53:00,
2013-01-23 10:03:00,20.0,14.0,-100.00,South,180,0.0,0.0,76,-99.99,,,-99.99,,2013-01-23 16:03:00,
2013-01-23 10:12:00,21.0,15.0,-100.00,SSW,200,0.0,0.0,75,-99.99,,,-99.99,,2013-01-23 16:12:00,
2013-01-23 10:23:00,22.0,15.0,-100.00,SSW,200,0.0,0.0,73,-99.99,,,-99.99,,2013-01-23 16:23:00,
2013-01-23 10:33:00,23.0,15.0,-100.00,South,185,0.0,0.0,73,-99.99,,,-99.99,,2013-01-23 16:33:00,
2013-01-23 10:42:00,23.0,15.0,-100.00,South,185,0.0,0.0,73,-99.99,,,-99.99,,2013-01-23 16:42:00,
2013-01-23 10:53:00,24.0,16.0,-100.00,SW,235,0.0,0.0,71,-99.99,,,-99.99,,2013-01-23 16:53:00,
2013-01-23 11:03:00,24.0,16.0,-100.00,SW,235,0.0,0.0,71,-99.99,,,-99.99,,2013-01-23 17:03:00,
2013-01-23 11:12:00,26.0,16.0,-100.00,SW,235,0.0,0.0,68,-99.99,,,-99.99,,2013-01-23 17:12:00,
2013-01-23 11:23:00,27.0,16.0,-100.00,SSW,205,0.0,0.0,65,-99.99,,,-99.99,,2013-01-23 17:23:00,
2013-01-23 11:33:00,27.0,16.0,-100.00,SSW,205,0.0,0.0,65,-99.99,,,-99.99,,2013-01-23 17:33:00,
2013-01-23 11:42:00,28.0,17.0,-100.00,West,270,0.0,0.0,63,-99.99,,,-99.99,,2013-01-23 17:42:00,
2013-01-23 11:53:00,28.0,17.0,-100.00,WSW,245,0.0,0.0,61,-99.99,,,-99.99,,2013-01-23 17:53:00,
2013-01-23 12:03:00,28.0,17.0,-100.00,WSW,245,0.0,0.0,61,-99.99,,,-99.99,,2013-01-23 18:03:00,
2013-01-23 12:12:00,29.0,17.0,-100.00,WSW,245,0.0,0.0,59,-99.99,,,-99.99,,2013-01-23 18:12:00,
2013-01-23 12:23:00,30.0,18.0,-100.00,SSW,200,0.0,0.0,59,-99.99,,,-99.99,,2013-01-23 18:23:00,
2013-01-23 12:33:00,30.0,18.0,-100.00,SSW,200,0.0,0.0,59,-99.99,,,-99.99,,2013-01-23 18:33:00,
2013-01-23 12:43:00,31.0,18.0,-100.00,SW,230,0.0,0.0,58,-99.99,,,-99.99,,2013-01-23 18:43:00,
2013-01-23 12:53:00,31.0,18.0,-100.00,WSW,255,0.0,0.0,57,-99.99,,,-99.99,,2013-01-23 18:53:00,
2013-01-23 13:03:00,31.0,18.0,-100.00,WSW,255,0.0,0.0,57,-99.99,,,-99.99,,2013-01-23 19:03:00,
2013-01-23 13:13:00,32.0,18.0,-100.00,SW,230,0.0,0.0,55,-99.99,,,-99.99,,2013-01-23 19:13:00,
2013-01-23 13:23:00,33.0,18.0,-100.00,West,265,0.0,0.0,54,-99.99,,,-99.99,,2013-01-23 19:23:00,
2013-01-23 13:33:00,33.0,18.0,-100.00,West,265,0.0,0.0,54,-99.99,,,-99.99,,2013-01-23 19:33:00,
2013-01-23 13:43:00,34.0,19.0,-100.00,WSW,255,0.0,0.0,53,-99.99,,,-99.99,,2013-01-23 19:43:00,
2013-01-23 13:53:00,34.0,18.0,-100.00,West,280,0.0,0.0,53,-99.99,,,-99.99,,2013-01-23 19:53:00,
2013-01-23 14:03:00,34.0,18.0,-100.00,West,280,0.0,0.0,53,-99.99,,,-99.99,,2013-01-23 20:03:00,
2013-01-23 14:13:00,35.0,19.0,-100.00,West,275,0.0,0.0,53,-99.99,,,-99.99,,2013-01-23 20:13:00,
2013-01-23 14:23:00,36.0,20.0,-100.00,WNW,285,0.0,0.0,52,-99.99,,,-99.99,,2013-01-23 20:23:00,
2013-01-23 14:33:00,36.0,20.0,-100.00,WNW,285,0.0,0.0,52,-99.99,,,-99.99,,2013-01-23 20:33:00,
2013-01-23 14:43:00,36.0,20.0,-100.00,WNW,285,0.0,0.0,52,-99.99,,,-99.99,,2013-01-23 20:43:00,
2013-01-23 14:54:00,35.0,20.0,-100.00,West,280,0.0,0.0,54,-99.99,,,-99.99,,2013-01-23 20:54:00,
2013-01-23 15:03:00,35.0,20.0,-100.00,West,280,0.0,0.0,54,-99.99,,,-99.99,,2013-01-23 21:03:00,
2013-01-23 15:12:00,35.0,20.0,-100.00,WNW,285,0.0,0.0,54,-99.99,,,-99.99,,2013-01-23 21:12:00,
2013-01-23 15:23:00,36.0,21.0,-100.00,WNW,290,0.0,0.0,54,-99.99,,,-99.99,,2013-01-23 21:23:00,
2013-01-23 15:33:00,36.0,21.0,-100.00,WNW,290,0.0,0.0,54,-99.99,,,-99.99,,2013-01-23 21:33:00,
2013-01-23 15:43:00,36.0,21.0,-100.00,WNW,290,0.0,0.0,53,-99.99,,,-99.99,,2013-01-23 21:43:00,
2013-01-23 15:53:00,37.0,22.0,-100.00,NW,320,0.0,0.0,53,-99.99,,,-99.99,,2013-01-23 21:53:00,
2013-01-23 16:02:00,37.0,22.0,-100.00,NW,320,0.0,0.0,53,-99.99,,,-99.99,,2013-01-23 22:02:00,
2013-01-23 16:12:00,38.0,22.0,-100.00,NW,310,0.0,0.0,52,-99.99,,,-99.99,,2013-01-23 22:12:00,
2013-01-23 16:23:00,37.0,21.0,-100.00,NW,320,0.0,0.0,53,-99.99,,,-99.99,,2013-01-23 22:23:00,
2013-01-23 16:33:00,37.0,21.0,-100.00,NW,320,0.0,0.0,53,-99.99,,,-99.99,,2013-01-23 22:33:00,
2013-01-23 16:42:00,36.0,21.0,-100.00,NW,310,0.0,0.0,53,-99.99,,,-99.99,,2013-01-23 22:42:00,
2013-01-23 16:53:00,35.0,21.0,-100.00,NW,320,0.0,0.0,55,-99.99,,,-99.99,,2013-01-23 22:53:00,
2013-01-23 17:03:00,35.0,21.0,-100.00,NW,320,0.0,0.0,55,-99.99,,,-99.99,,2013-01-23 23:03:00,
2013-01-23 17:12:00,34.0,21.0,-100.00,NW,320,0.0,0.0,57,-99.99,,,-99.99,,2013-01-23 23:12:00,
2013-01-23 17:23:00,33.0,20.0,-100.00,NW,325,0.0,0.0,59,-99.99,,,-99.99,,2013-01-23 23:23:00,
2013-01-23 17:33:00,33.0,20.0,-100.00,NW,325,0.0,0.0,59,-99.99,,,-99.99,,2013-01-23 23:33:00,
2013-01-23 17:43:00,32.0,20.0,-100.00,NW,310,0.0,0.0,62,-99.99,,,-99.99,,2013-01-23 23:43:00,
2013-01-23 17:53:00,31.0,20.0,-100.00,NW,315,0.0,0.0,65,-99.99,,,-99.99,,2013-01-23 23:53:00,
2013-01-23 18:03:00,31.0,20.0,-100.00,NW,315,0.0,0.0,65,-99.99,,,-99.99,,2013-01-24 00:03:00,
2013-01-23 18:12:00,30.0,21.0,-100.00,WNW,295,0.0,0.0,69,-99.99,,,-99.99,,2013-01-24 00:12:00,
2013-01-23 18:22:00,29.0,21.0,-100.00,NW,310,0.0,0.0,70,-99.99,,,-99.99,,2013-01-24 00:22:00,
2013-01-23 18:32:00,29.0,21.0,-100.00,NW,310,0.0,0.0,70,-99.99,,,-99.99,,2013-01-24 00:32:00,
2013-01-23 18:42:00,29.0,21.0,-100.00,NW,320,0.0,0.0,71,-99.99,,,-99.99,,2013-01-24 00:42:00,
2013-01-23 18:53:00,29.0,20.0,-100.00,NNW,330,0.0,0.0,71,-99.99,,,-99.99,,2013-01-24 00:53:00,
2013-01-23 19:03:00,29.0,20.0,-100.00,NNW,330,0.0,0.0,71,-99.99,,,-99.99,,2013-01-24 01:03:00,
2013-01-23 19:12:00,28.0,20.0,-100.00,NW,320,0.0,0.0,71,-99.99,,,-99.99,,2013-01-24 01:12:00,
2013-01-23 19:23:00,28.0,20.0,-100.00,NW,315,0.0,0.0,73,-99.99,,,-99.99,,2013-01-24 01:23:00,
2013-01-23 19:33:00,28.0,20.0,-100.00,NW,315,0.0,0.0,73,-99.99,,,-99.99,,2013-01-24 01:33:00,
2013-01-23 19:42:00,27.0,20.0,-100.00,NW,315,0.0,0.0,73,-99.99,,,-99.99,,2013-01-24 01:42:00,
2013-01-23 19:53:00,27.0,20.0,-100.00,NW,320,0.0,0.0,74,-99.99,,,-99.99,,2013-01-24 01:53:00,
2013-01-23 20:02:00,27.0,20.0,-100.00,NW,320,0.0,0.0,74,-99.99,,,-99.99,,2013-01-24 02:02:00,
2013-01-23 20:12:00,27.0,20.0,-100.00,NW,315,0.0,0.0,75,-99.99,,,-99.99,,2013-01-24 02:12:00,
2013-01-23 20:22:00,27.0,20.0,-100.00,NW,315,0.0,0.0,76,-99.99,,,-99.99,,2013-01-24 02:22:00,
2013-01-23 20:33:00,27.0,20.0,-100.00,NW,315,0.0,0.0,76,-99.99,,,-99.99,,2013-01-24 02:33:00,
2013-01-23 20:42:00,27.0,20.0,-100.00,NW,315,0.0,0.0,76,-99.99,,,-99.99,,2013-01-24 02:42:00,
2013-01-23 21:02:00,26.0,18.0,-100.00,North,350,0.0,0.0,73,-99.99,,,-99.99,,2013-01-24 03:02:00,
2013-01-23 21:12:00,26.0,17.0,-100.00,NNW,345,0.0,0.0,70,-99.99,,,-99.99,,2013-01-24 03:12:00,
2013-01-23 21:22:00,25.0,16.0,-100.00,NNW,340,0.0,0.0,69,-99.99,,,-99.99,,2013-01-24 03:22:00,
2013-01-23 21:33:00,25.0,16.0,-100.00,NNW,340,0.0,0.0,69,-99.99,,,-99.99,,2013-01-24 03:33:00,
2013-01-23 21:43:00,24.0,15.0,-100.00,NNW,340,0.0,0.0,68,-99.99,,,-99.99,,2013-01-24 03:43:00,
2013-01-23 21:53:00,22.0,13.0,-100.00,NNW,345,0.0,0.0,65,-99.99,,,-99.99,,2013-01-24 03:53:00,
2013-01-23 22:02:00,22.0,13.0,-100.00,NNW,345,0.0,0.0,65,-99.99,,,-99.99,,2013-01-24 04:02:00,
2013-01-23 22:12:00,22.0,12.0,-100.00,NNW,340,0.0,0.0,65,-99.99,,,-99.99,,2013-01-24 04:12:00,
2013-01-23 22:22:00,21.0,11.0,-100.00,NNW,330,0.0,0.0,65,-99.99,,,-99.99,,2013-01-24 04:22:00,
2013-01-23 22:32:00,21.0,11.0,-100.00,NNW,330,0.0,0.0,65,-99.99,,,-99.99,,2013-01-24 04:32:00,
2013-01-23 22:42:00,20.0,11.0,-100.00,NNW,335,0.0,0.0,66,-99.99,,,-99.99,,2013-01-24 04:42:00,
2013-01-23 22:53:00,19.0,10.0,-100.00,NNW,345,0.0,0.0,66,-99.99,,,-99.99,,2013-01-24 04:53:00,
2013-01-23 23:03:00,19.0,10.0,-100.00,NNW,345,0.0,0.0,66,-99.99,,,-99.99,,2013-01-24 05:03:00,
2013-01-23 23:12:00,19.0,9.0,-100.00,NNW,335,0.0,0.0,65,-99.99,,,-99.99,,2013-01-24 05:12:00,
2013-01-23 23:22:00,18.0,8.0,-100.00,NNW,340,0.0,0.0,65,-99.99,,,-99.99,,2013-01-24 05:22:00,
2013-01-23 23:33:00,18.0,8.0,-100.00,NNW,340,0.0,0.0,65,-99.99,,,-99.99,,2013-01-24 05:33:00,
2013-01-23 23:42:00,17.0,8.0,-100.00,North,0,0.0,0.0,66,-99.99,,,-99.99,,2013-01-24 05:42:00,
2013-01-23 23:53:00,17.0,8.0,-100.00,North,0,0.0,0.0,67,-99.99,,,-99.99,,2013-01-24 05:53:00,